DateTimeUTC,F1_A11,F1_S11,BsB_S11,BsG_S11,BsR_S11,BbsB_S11,BbsG_S11,BbsR_S11,BaB_A11,BaG_A11,BaR_A11,Tu_S11,T_S11,Uu_S11,U_S11,P_S11,T1_A11
2021-06-22T02:00:00Z,00000200,20000000,,,,,,,0000.12,-000.43,-000.16,17.7,24.8,02.3,01.5,0669.4,31.1
2021-06-22T02:01:00Z,00000200,20000000,,,,,,,-000.13,0000.49,0000.20,17.7,24.8,02.3,01.5,0669.4,31.1
2021-06-22T02:02:00Z,00000200,20000000,,,,,,,0000.13,-000.23,-000.08,17.8,24.8,02.3,01.5,0669.4,31.1
2021-06-22T02:03:00Z,00000200,60000000,,,,,,,0000.09,0000.06,0000.19,17.8,24.8,02.3,01.5,0669.4,31.1
2021-06-22T02:04:00Z,00000200,40000000,0000.20,0000.48,-000.00,0000.25,0000.30,-000.17,0000.50,0000.14,0000.30,18.2,24.8,02.2,01.5,0670.4,31.1
2021-06-22T02:05:00Z,00000200,00000000,0001.47,0000.52,0000.36,0000.17,-000.14,-000.19,0000.39,0000.83,0000.49,18.3,24.8,02.2,01.5,0670.4,31.1
2021-06-22T02:06:00Z,00000200,00000000,0000.70,0000.82,0000.82,0000.37,0000.23,0000.11,0000.42,0000.70,0000.11,18.3,24.8,02.2,01.5,0670.4,31.1
2021-06-22T02:07:00Z,00000200,00000000,0001.21,0000.37,0000.69,-000.13,0000.13,0000.26,0000.64,0000.26,0000.59,18.3,24.7,02.3,01.5,0670.4,31.1
2021-06-22T02:08:00Z,00000200,00000000,0000.63,0000.45,0000.59,0000.03,0000.23,-000.12,0000.45,0000.49,0000.12,18.2,24.7,02.2,01.5,0670.4,31.1
2021-06-22T02:09:00Z,00000200,00000000,0001.21,0000.58,0000.51,0000.18,0000.04,0000.00,0000.68,0000.22,0000.58,18.2,24.7,02.2,01.4,0670.4,31.1
2021-06-22T02:10:00Z,00000200,00000000,0001.13,0000.63,0000.16,0000.63,0000.17,-000.01,0000.19,0000.47,0000.12,18.1,24.6,02.2,01.5,0670.4,31.0
2021-06-22T02:11:00Z,00000200,00000000,0000.71,0000.86,0000.52,0000.23,0000.22,-000.03,0000.88,0000.58,0000.64,18.0,24.6,02.2,01.5,0670.3,31.0
2021-06-22T02:12:00Z,00000200,00000000,0001.54,0000.43,0000.64,0000.24,-000.01,0000.10,-000.13,0000.24,0000.09,18.0,24.6,02.3,01.5,0670.3,31.0
2021-06-22T02:13:00Z,00000200,00000000,0000.49,0000.33,0000.56,-000.19,0000.26,-000.04,0000.60,0000.27,0000.31,18.0,24.5,02.3,01.5,0670.3,31.0
2021-06-22T02:14:00Z,00000200,00000000,0001.16,0000.55,0000.17,-000.10,-000.01,-000.05,0000.95,0000.94,0000.57,18.0,24.5,02.3,01.5,0670.3,31.0
2021-06-22T02:15:00Z,00000200,00000000,0001.28,0000.59,0000.52,0000.17,0000.22,0000.14,0000.55,0000.57,0000.60,18.1,24.6,02.2,01.5,0670.3,31.0
2021-06-22T02:16:00Z,00000200,00000000,0001.54,0000.58,0000.37,0001.02,0000.14,0000.30,0000.49,0000.69,0000.34,18.1,24.6,02.3,01.5,0670.3,31.1
2021-06-22T02:17:00Z,00000200,00000000,0000.75,0000.67,0000.49,0000.35,0000.13,0000.30,0000.46,0000.27,0000.68,18.2,24.6,02.3,01.5,0670.3,31.1
2021-06-22T02:18:00Z,00000200,00000000,0000.47,0000.34,0000.50,0000.20,0000.13,0000.11,0000.20,0000.19,-000.02,18.3,24.7,02.2,01.5,0670.3,31.1
2021-06-22T02:19:00Z,00000200,00000000,0000.66,0000.60,0000.54,0000.07,0000.02,-000.05,0000.31,0000.35,0000.17,18.3,24.7,02.1,01.4,0670.3,31.1
2021-06-22T02:20:00Z,00000200,00000000,0000.77,0000.96,0000.44,-000.08,0000.13,0000.24,0000.45,0000.46,0000.39,18.3,24.7,02.1,01.4,0670.3,31.1
2021-06-22T02:21:00Z,00000200,01000000,0000.91,0000.36,0000.78,0000.14,0000.06,0000.22,0000.59,0000.51,0000.49,18.2,24.7,02.1,01.4,0670.3,31.1
2021-06-22T02:22:00Z,00000200,01000000,0000.68,0000.45,0000.50,0000.54,0000.34,-000.01,0000.86,0000.66,0000.61,18.2,24.7,02.2,01.5,0670.2,31.1
2021-06-22T02:23:00Z,00000200,00000000,0000.92,0000.35,0000.62,0000.10,0000.17,-000.02,0000.50,0000.65,0000.44,18.1,24.6,02.2,01.5,0670.2,31.1
2021-06-22T02:24:00Z,00000200,00000000,0000.82,0000.57,0000.35,-000.01,0000.24,-000.33,0001.22,0001.02,0000.53,18.1,24.6,02.2,01.4,0670.2,31.1
2021-06-22T02:25:00Z,00000200,00000000,0001.59,0000.80,0000.43,0000.36,-000.02,0000.24,0001.97,0001.63,0001.29,18.0,24.6,02.1,01.4,0670.2,31.0
2021-06-22T02:26:00Z,00000200,00000000,0000.86,0000.52,0000.55,0000.32,0000.25,0000.05,0002.39,0002.29,0002.13,18.0,24.5,02.1,01.4,0670.2,31.0
2021-06-22T02:27:00Z,00000200,00000000,0001.10,0000.66,0000.41,0000.45,0000.15,-000.04,0001.39,0001.19,0000.81,17.9,24.5,02.1,01.4,0670.2,31.0
2021-06-22T02:28:00Z,00000200,00000000,0000.86,0000.59,0000.59,0000.54,-000.03,-000.02,0001.99,0002.11,0001.37,17.9,24.5,02.2,01.5,0670.1,31.0
2021-06-22T02:29:00Z,00000200,00000000,0000.98,0000.76,0000.55,0000.41,0000.16,0000.12,0005.69,0005.14,0004.01,17.9,24.5,02.2,01.5,0670.2,31.0
2021-06-22T02:30:00Z,00000200,00000000,0000.60,0000.99,0000.41,0000.63,0000.30,-000.05,0005.85,0005.03,0004.25,18.0,24.5,02.2,01.5,0670.2,31.0
2021-06-22T02:31:00Z,00000200,00000000,0000.96,0000.36,0000.49,0000.30,0000.07,0000.14,0002.63,0002.80,0002.15,18.1,24.5,02.2,01.5,0670.2,31.0
2021-06-22T02:32:00Z,00000200,00000000,0001.14,0000.49,0000.97,0000.11,-000.10,0000.19,0003.56,0002.85,0002.47,18.1,24.5,02.2,01.5,0670.2,31.1
2021-06-22T02:33:00Z,00000200,00000000,0001.53,0000.43,0000.45,0000.72,0000.26,0000.10,0001.23,0001.55,0001.10,18.2,24.6,02.1,01.4,0670.2,31.1
2021-06-22T02:34:00Z,00000200,00000000,0001.06,0000.67,0000.49,0000.17,0000.24,0000.14,0000.94,0000.66,0000.75,18.3,24.6,02.1,01.4,0670.2,31.1
2021-06-22T02:35:00Z,00000200,01000000,0001.53,0000.69,0000.45,0000.57,0000.26,0000.22,0001.77,0001.57,0000.88,18.3,24.7,02.1,01.4,0670.2,31.1
2021-06-22T02:36:00Z,00000200,01000000,0001.23,0000.24,0000.46,0000.15,0000.07,0000.18,0000.45,0000.28,0000.57,18.3,24.7,02.1,01.4,0670.2,31.1
2021-06-22T02:37:00Z,00000200,00000000,0000.65,0000.45,0000.67,0000.95,-000.26,0000.17,0000.72,0001.00,0000.32,18.3,24.7,02.0,01.4,0670.2,31.1
2021-06-22T02:38:00Z,00000200,00000000,0000.70,0000.69,0000.31,0000.19,0000.34,-000.14,0001.41,0001.27,0000.84,18.2,24.7,02.0,01.3,0670.2,31.1
2021-06-22T02:39:00Z,00000200,00000000,0000.56,0000.45,0000.74,0000.25,-000.07,0000.09,0003.36,0002.95,0002.53,18.2,24.6,02.0,01.4,0670.2,31.0
2021-06-22T02:40:00Z,00000200,00000000,0000.86,0000.70,0000.45,0000.37,0000.46,-000.05,0005.59,0005.15,0004.29,18.1,24.6,02.0,01.4,0670.2,31.0
2021-06-22T02:41:00Z,00000200,00000000,0001.28,0000.83,0000.62,0000.60,0000.28,0000.34,0007.18,0006.60,0005.20,18.1,24.6,02.1,01.4,0670.1,31.0
2021-06-22T02:42:00Z,00000200,01000000,0001.58,0000.70,0000.65,0000.18,0000.36,0000.09,0008.33,0007.27,0005.76,18.0,24.5,02.0,01.3,0670.1,31.0
2021-06-22T02:43:00Z,00000200,00000000,0001.34,0000.53,0000.46,0000.06,0000.24,0000.18,0004.06,0003.98,0003.16,18.0,24.5,02.1,01.4,0670.1,31.0
2021-06-22T02:44:00Z,00000200,00000000,0000.91,0000.72,0000.76,0000.77,0000.04,0000.03,0008.05,0007.20,0005.70,18.0,24.5,02.0,01.4,0670.1,31.0
2021-06-22T02:45:00Z,00000200,00000000,0001.60,0000.92,0000.82,-000.04,0000.17,0000.27,0012.13,0011.12,0009.13,18.0,24.5,01.9,01.3,0670.1,31.0
2021-06-22T02:46:00Z,00000200,00000000,0000.89,0000.70,0000.83,0000.15,0000.12,0000.13,0010.98,0010.07,0007.68,18.1,24.5,02.0,01.3,0670.2,31.0
2021-06-22T02:47:00Z,00000200,00000000,0001.73,0000.84,0000.78,0000.94,0000.36,0000.14,0016.70,0015.07,0011.76,18.2,24.6,01.9,01.3,0670.2,31.1
2021-06-22T02:48:00Z,00000200,00000000,0002.02,0001.23,0000.97,-000.05,0000.38,-000.05,0019.97,0018.79,0014.79,18.3,24.6,01.9,01.3,0670.2,31.1
2021-06-22T02:49:00Z,00000200,00000000,0001.69,0001.31,0000.95,0000.33,0000.40,0000.36,0021.17,0019.19,0015.10,18.4,24.6,02.0,01.3,0670.2,31.1
2021-06-22T02:50:00Z,00000200,01000000,0001.36,0001.21,0000.74,0000.27,0000.18,0000.07,0021.30,0019.23,0014.64,18.4,24.7,01.9,01.3,0670.2,31.1
2021-06-22T02:51:00Z,00000200,00000000,0001.35,0001.28,0000.75,0000.60,0000.46,-000.15,0021.14,0019.64,0015.56,18.4,24.7,01.8,01.3,0670.2,31.1
2021-06-22T02:52:00Z,00000200,01000000,0001.91,0000.95,0000.52,0000.68,0000.15,0000.17,0017.52,0015.58,0012.50,18.3,24.7,01.9,01.3,0670.1,31.1
2021-06-22T02:53:00Z,00000200,00000000,0001.52,0001.02,0000.67,0000.11,0000.20,0000.18,0016.93,0015.62,0012.47,18.3,24.7,01.8,01.2,0670.1,31.1
2021-06-22T02:54:00Z,00000200,01000000,0002.14,0001.03,0000.64,0000.43,0000.47,0000.26,0021.09,0019.07,0014.79,18.2,24.6,01.9,01.3,0670.1,31.1
2021-06-22T02:55:00Z,00000200,00000000,0001.29,0000.98,0000.84,0000.84,0000.34,0000.34,0019.71,0017.72,0014.29,18.2,24.6,01.9,01.3,0670.1,31.0
2021-06-22T02:56:00Z,00000200,01000000,0001.68,0001.01,0000.93,0000.81,0000.40,0000.11,0017.51,0016.01,0012.54,18.1,24.6,01.9,01.3,0670.1,31.0
2021-06-22T02:57:00Z,00000200,40000000,,,,,,,0006.01,0005.59,0004.56,18.1,24.6,01.6,01.1,0669.9,31.0
2021-06-22T02:58:00Z,00000200,60000000,,,,,,,0000.40,0000.41,0000.01,17.8,24.7,02.0,01.3,0669.0,31.0
2021-06-22T02:59:00Z,00000200,20000000,,,,,,,0000.13,-000.01,0000.20,17.8,24.8,02.0,01.3,0669.1,31.0
